GFSCGP_500_temp_000.txt.gz
Temp
-7 -7 -7 -7 -7 -7 -6 -7 -6 -7 -6 -6 -6 -6 -7 -6 -7 -7 -7 -8 -8 -7 -8 -8 -8 -8 -8 -8 -8 -9 -8 -9 -9 -9 -9 -9 -9 -9 -9 -9 -9 -9 -9 -10
-7 -7 -7 -7 -7 -7 -7 -7 -7 -7 -7 -6 -7 -6 -7 -7 -7 -8 -7 -8 -8 -8 -8 -8 -8 -9 -8 -9 -9 -8 -9 -9 -9 -9 -9 -9 -10 -10 -9 -9 -10 -9 -10 -10
-7 -7 -7 -7 -7 -7 -7 -7 -7 -7 -6 -7 -7 -6 -7 -7 -7 -7 -8 -8 -8 -8 -8 -8 -8 -9 -9 -9 -8 -9 -9 -9 -9 -9 -10 -10 -10 -10 -10 -10 -10 -10 -10 -10
-6 -7 -7 -7 -7 -8 -7 -7 -8 -8 -8 -8 -7 -6 -7 -8 -8 -8 -8 -8 -8 -8 -8 -8 -8 -8 -9 -8 -9 -9 -9 -9 -9 -9 -10 -10 -10 -10 -10 -10 -10 -10 -10 -10
-7 -7 -7 -7 -8 -8 -7 -8 -8 -8 -8 -8 -7 -7 -6 -8 -8 -8 -8 -9 -9 -8 -8 -8 -8 -8 -9 -9 -9 -9 -9 -9 -10 -10 -10 -10 -10 -10 -10 -10 -10 -10 -10 -11
-8 -7 -8 -8 -8 -8 -8 -9 -9 -9 -9 -7 -8 -9 -6 -8 -8 -8 -8 -9 -9 -8 -8 -8 -8 -8 -9 -9 -10 -10 -9 -10 -10 -10 -10 -10 -10 -10 -10 -10 -10 -11 -11 -11
-9 -8 -8 -8 -8 -9 -9 -9 -9 -10 -9 -8 -9 -10 -7 -8 -8 -8 -8 -9 -9 -8 -8 -8 -9 -9 -9 -10 -10 -10 -10 -10 -10 -10 -10 -10 -10 -10 -10 -10 -11 -11 -11 -12
-9 -8 -9 -9 -9 -10 -10 -10 -10 -11 -10 -9 -9 -8 -8 -8 -8 -9 -9 -9 -9 -9 -9 -8 -9 -9 -10 -10 -10 -10 -10 -10 -10 -10 -10 -10 -10 -10 -10 -10 -10 -11 -12 -12
-10 -9 -11 -9 -10 -11 -10 -10 -11 -11 -10 -11 -9 -9 -8 -8 -9 -9 -8 -9 -9 -9 -9 -9 -9 -10 -10 -10 -10 -10 -10 -10 -10 -10 -10 -10 -11 -11 -10 -10 -11 -12 -12 -12
-10 -11 -11 -10 -10 -10 -11 -10 -10 -11 -10 -10 -9 -9 -9 -9 -9 -8 -8 -9 -9 -9 -9 -10 -10 -10 -10 -10 -10 -10 -10 -10 -10 -10 -11 -11 -11 -11 -11 -11 -12 -12 -12 -13
-11 -12 -12 -11 -9 -9 -11 -11 -11 -11 -10 -10 -10 -9 -9 -10 -10 -9 -9 -10 -10 -9 -9 -10 -10 -10 -10 -10 -10 -10 -10 -10 -10 -10 -11 -11 -11 -11 -11 -11 -12 -13 -13 -13
-12 -13 -12 -12 -11 -12 -11 -11 -11 -11 -10 -10 -10 -9 -9 -10 -10 -10 -9 -10 -10 -10 -9 -10 -10 -10 -10 -10 -10 -10 -10 -10 -11 -11 -11 -11 -11 -11 -11 -12 -12 -13 -13 -14
-12 -13 -12 -12 -12 -11 -10 -10 -11 -11 -12 -11 -11 -9 -9 -10 -10 -10 -10 -11 -11 -10 -10 -10 -10 -10 -10 -10 -11 -10 -11 -11 -11 -11 -11 -11 -11 -11 -12 -12 -13 -13 -14 -14
-14 -14 -14 -11 -11 -13 -12 -12 -12 -12 -12 -9 -11 -10 -10 -10 -11 -11 -11 -11 -10 -10 -10 -11 -10 -10 -10 -10 -10 -11 -11 -11 -11 -11 -11 -11 -11 -11 -12 -13 -13 -14 -14 -14
-15 -15 -14 -13 -13 -13 -13 -12 -12 -11 -10 -11 -9 -10 -9 -10 -11 -11 -12 -11 -10 -10 -11 -11 -11 -11 -10 -10 -11 -11 -11 -11 -11 -11 -11 -11 -11 -12 -13 -13 -14 -14 -14 -15
-14 -15 -14 -14 -14 -13 -14 -13 -13 -11 -10 -10 -10 -9 -10 -11 -11 -12 -12 -10 -10 -10 -10 -11 -11 -11 -11 -11 -11 -11 -12 -12 -11 -12 -12 -12 -12 -12 -13 -13 -14 -14 -14 -15
-15 -15 -15 -15 -14 -14 -15 -12 -11 -12 -11 -10 -10 -9 -11 -11 -12 -13 -12 -12 -11 -11 -11 -11 -11 -11 -11 -11 -11 -12 -12 -12 -12 -12 -12 -12 -12 -13 -13 -14 -14 -14 -15 -15
-16 -15 -15 -15 -15 -15 -13 -12 -12 -13 -12 -11 -11 -10 -11 -12 -12 -12 -11 -11 -12 -12 -12 -12 -12 -11 -11 -11 -12 -12 -12 -12 -12 -12 -12 -12 -13 -13 -14 -14 -14 -14 -15 -16
-18 -18 -16 -15 -16 -15 -15 -13 -13 -12 -12 -12 -11 -11 -12 -12 -13 -12 -11 -12 -12 -12 -12 -12 -12 -12 -11 -12 -12 -13 -12 -12 -12 -12 -12 -13 -13 -14 -14 -14 -14 -15 -15 -16
-19 -20 -18 -17 -15 -15 -14 -13 -14 -14 -13 -12 -12 -12 -13 -14 -13 -11 -13 -13 -13 -13 -13 -12 -12 -12 -12 -12 -13 -13 -12 -12 -12 -13 -13 -13 -14 -14 -14 -14 -14 -15 -15 -16
-20 -20 -20 -17 -16 -16 -16 -15 -15 -15 -13 -14 -14 -14 -14 -14 -13 -13 -14 -13 -13 -13 -13 -12 -12 -12 -12 -12 -13 -13 -12 -12 -13 -13 -13 -13 -14 -14 -14 -14 -15 -15 -16 -16
-21 -21 -20 -20 -18 -18 -15 -16 -16 -15 -15 -15 -15 -15 -14 -13 -13 -13 -14 -14 -14 -13 -13 -13 -13 -12 -12 -12 -13 -12 -12 -13 -13 -13 -13 -14 -14 -14 -15 -15 -15 -15 -16 -17
-21 -22 -21 -22 -19 -18 -18 -16 -16 -16 -15 -15 -15 -15 -15 -14 -14 -14 -14 -14 -13 -13 -13 -13 -13 -13 -13 -13 -13 -13 -13 -13 -14 -14 -14 -14 -14 -15 -14 -15 -15 -16 -16 -17
-22 -22 -22 -22 -19 -19 -19 -18 -17 -16 -16 -15 -15 -15 -15 -15 -14 -14 -14 -13 -13 -13 -13 -13 -13 -13 -13 -13 -13 -13 -13 -13 -14 -14 -14 -14 -15 -14 -15 -15 -15 -16 -16 -18
-22 -23 -22 -22 -19 -21 -20 -18 -17 -16 -16 -16 -16 -15 -15 -15 -14 -14 -13 -13 -13 -13 -13 -13 -13 -13 -13 -13 -13 -13 -14 -14 -14 -14 -14 -15 -15 -15 -15 -15 -16 -16 -17 -19
-23 -22 -22 -22 -21 -22 -20 -20 -18 -17 -17 -16 -16 -15 -15 -15 -15 -15 -14 -14 -14 -14 -13 -14 -13 -13 -13 -13 -13 -13 -14 -14 -14 -14 -15 -15 -15 -15 -15 -16 -16 -16 -18 -19

GFSCGP_500_temp_003.txt.gz
Temp
-7 -6 -7 -7 -7 -7 -6 -6 -7 -7 -6 -6 -6 -6 -6 -6 -6 -6 -7 -6 -7 -7 -8 -7 -7 -8 -8 -8 -8 -8 -8 -8 -9 -8 -8 -8 -8 -9 -9 -9 -9 -9 -9 -9
-6 -6 -7 -7 -7 -7 -7 -7 -7 -7 -6 -6 -6 -5 -6 -6 -6 -6 -7 -7 -7 -7 -7 -7 -8 -8 -8 -8 -8 -8 -8 -8 -8 -9 -9 -8 -9 -9 -9 -9 -9 -9 -10 -10
-6 -6 -7 -7 -7 -6 -7 -7 -7 -7 -7 -6 -6 -5 -6 -6 -6 -6 -7 -7 -7 -7 -8 -8 -8 -8 -8 -8 -8 -8 -8 -8 -9 -9 -9 -9 -9 -9 -9 -9 -10 -10 -10 -10
-6 -6 -7 -7 -7 -8 -7 -7 -7 -8 -8 -7 -7 -5 -5 -6 -6 -6 -7 -7 -8 -8 -8 -8 -8 -8 -8 -8 -8 -8 -8 -8 -9 -9 -9 -9 -9 -9 -10 -10 -10 -10 -10 -10
-6 -6 -7 -7 -8 -8 -7 -8 -8 -8 -8 -8 -7 -6 -4 -6 -7 -7 -7 -8 -8 -8 -8 -8 -8 -8 -8 -8 -8 -8 -8 -8 -9 -9 -9 -10 -10 -10 -10 -10 -10 -10 -10 -10
-7 -7 -7 -8 -8 -8 -8 -8 -9 -9 -8 -7 -6 -9 -4 -6 -6 -8 -8 -8 -8 -9 -9 -9 -9 -8 -8 -8 -8 -8 -9 -9 -9 -9 -10 -10 -10 -10 -10 -10 -10 -11 -10 -10
-8 -8 -8 -8 -8 -8 -9 -9 -10 -9 -9 -7 -8 -9 -6 -6 -7 -7 -8 -8 -9 -9 -9 -9 -8 -8 -8 -8 -9 -9 -9 -9 -10 -10 -10 -10 -10 -10 -10 -11 -11 -11 -10 -10
-8 -8 -9 -9 -9 -10 -10 -10 -10 -10 -9 -9 -9 -8 -6 -8 -8 -8 -8 -9 -9 -8 -9 -8 -9 -9 -9 -9 -9 -9 -9 -10 -10 -10 -10 -10 -10 -11 -11 -11 -11 -11 -11 -11
-10 -8 -10 -9 -10 -11 -10 -9 -10 -11 -10 -10 -8 -8 -8 -8 -9 -9 -9 -9 -9 -10 -10 -9 -9 -9 -9 -9 -9 -9 -10 -10 -10 -10 -10 -10 -11 -11 -11 -11 -11 -11 -11 -11
-10 -11 -11 -10 -10 -9 -10 -10 -11 -11 -10 -10 -8 -8 -8 -9 -10 -9 -9 -9 -9 -10 -10 -9 -9 -9 -10 -10 -10 -10 -10 -10 -10 -10 -10 -11 -11 -11 -11 -11 -11 -11 -11 -11
-11 -13 -10 -12 -10 -10 -11 -11 -11 -12 -12 -11 -9 -8 -8 -8 -9 -10 -10 -10 -9 -10 -10 -10 -10 -9 -10 -10 -10 -10 -10 -10 -10 -10 -11 -11 -11 -11 -11 -11 -11 -11 -11 -12
-15 -15 -11 -12 -12 -12 -13 -13 -13 -12 -10 -11 -11 -9 -9 -9 -9 -10 -10 -10 -10 -11 -11 -11 -10 -10 -10 -10 -10 -10 -10 -10 -11 -11 -11 -11 -11 -11 -11 -12 -12 -12 -12 -13
-16 -15 -15 -12 -12 -12 -12 -12 -12 -12 -13 -12 -11 -8 -9 -10 -11 -11 -11 -11 -11 -11 -12 -11 -10 -10 -10 -10 -10 -11 -11 -11 -11 -11 -11 -11 -11 -11 -11 -12 -12 -12 -12 -13
-17 -16 -16 -15 -13 -15 -15 -14 -14 -14 -14 -10 -11 -9 -9 -10 -11 -11 -11 -11 -11 -11 -11 -11 -11 -11 -11 -11 -11 -11 -11 -11 -11 -11 -11 -11 -12 -12 -12 -12 -12 -12 -13 -13
-17 -17 -16 -16 -16 -16 -16 -16 -15 -14 -13 -13 -10 -11 -9 -11 -12 -11 -11 -12 -11 -11 -11 -11 -11 -11 -11 -11 -11 -11 -11 -11 -11 -12 -12 -11 -12 -12 -12 -12 -12 -13 -13 -14
-16 -15 -17 -16 -15 -15 -15 -15 -14 -14 -14 -13 -12 -10 -11 -11 -12 -12 -12 -12 -13 -11 -11 -11 -11 -12 -11 -11 -11 -11 -11 -11 -12 -12 -12 -12 -12 -12 -12 -12 -13 -13 -13 -14
-21 -19 -17 -16 -16 -16 -16 -15 -15 -15 -15 -15 -14 -10 -13 -12 -12 -12 -13 -13 -12 -11 -11 -11 -11 -12 -11 -11 -11 -12 -12 -11 -12 -12 -12 -12 -12 -12 -12 -13 -13 -13 -14 -14
-22 -21 -21 -19 -19 -18 -15 -16 -16 -15 -15 -15 -14 -13 -14 -13 -13 -14 -14 -13 -12 -11 -11 -11 -11 -12 -12 -12 -12 -12 -12 -12 -12 -12 -12 -12 -12 -13 -13 -13 -13 -13 -14 -14
-22 -22 -22 -21 -19 -19 -18 -16 -16 -16 -15 -15 -16 -15 -15 -14 -14 -14 -14 -14 -12 -12 -12 -12 -12 -13 -13 -12 -12 -12 -12 -12 -12 -12 -12 -12 -12 -13 -13 -13 -14 -14 -14 -15
-23 -23 -23 -22 -22 -21 -18 -18 -17 -17 -15 -15 -15 -15 -15 -15 -15 -12 -14 -14 -13 -13 -12 -12 -12 -12 -13 -13 -13 -12 -12 -12 -13 -13 -12 -12 -12 -13 -13 -14 -14 -15 -15 -15
-23 -23 -23 -23 -22 -21 -20 -20 -19 -17 -16 -15 -15 -15 -15 -15 -15 -13 -14 -14 -14 -13 -13 -13 -13 -13 -13 -13 -13 -13 -12 -13 -13 -13 -13 -13 -13 -14 -14 -14 -14 -15 -15 -15
-24 -23 -23 -23 -23 -22 -21 -21 -20 -18 -16 -16 -15 -14 -15 -15 -15 -14 -14 -14 -14 -14 -13 -13 -13 -13 -14 -13 -13 -13 -13 -13 -13 -13 -13 -13 -14 -14 -14 -14 -15 -15 -15 -15
-25 -25 -24 -24 -23 -22 -21 -21 -20 -18 -17 -17 -16 -15 -15 -15 -15 -15 -15 -15 -14 -14 -14 -14 -14 -14 -14 -14 -13 -13 -13 -13 -13 -13 -13 -14 -14 -14 -14 -14 -15 -15 -15 -15
-25 -25 -25 -25 -23 -23 -22 -22 -22 -20 -19 -17 -17 -16 -16 -15 -16 -15 -15 -15 -15 -14 -14 -13 -14 -14 -14 -14 -14 -13 -13 -13 -13 -14 -14 -14 -14 -14 -14 -15 -15 -15 -15 -15
-26 -26 -25 -26 -24 -25 -23 -23 -22 -22 -22 -20 -17 -17 -17 -16 -15 -15 -15 -15 -15 -14 -13 -14 -14 -14 -14 -14 -14 -14 -13 -14 -13 -14 -14 -14 -14 -14 -14 -15 -15 -15 -15 -15
-26 -26 -27 -26 -25 -26 -23 -23 -22 -22 -23 -21 -18 -18 -17 -17 -16 -16 -15 -15 -15 -14 -14 -14 -14 -14 -14 -14 -14 -14 -14 -14 -13 -14 -14 -14 -14 -15 -15 -15 -15 -15 -15 -15

GFSCGP_500_temp_009.txt.gz
Temp
-7 -6 -6 -7 -8 -7 -7 -6 -6 -7 -7 -7 -6 -6 -6 -6 -5 -6 -6 -6 -6 -6 -7 -6 -6 -6 -7 -7 -7 -8 -8 -8 -8 -8 -8 -8 -8 -8 -8 -8 -8 -9 -9 -9
-6 -6 -8 -7 -7 -7 -7 -7 -7 -7 -8 -7 -7 -5 -6 -6 -6 -6 -6 -6 -6 -6 -6 -6 -7 -6 -7 -8 -8 -8 -8 -8 -8 -8 -8 -8 -8 -8 -8 -9 -9 -9 -9 -9
-6 -7 -7 -7 -7 -7 -7 -7 -8 -8 -8 -7 -7 -4 -5 -6 -6 -6 -6 -7 -7 -7 -7 -7 -6 -6 -6 -7 -8 -8 -8 -8 -8 -9 -8 -8 -8 -8 -8 -9 -9 -9 -9 -9
-6 -7 -7 -7 -7 -8 -7 -8 -8 -7 -8 -6 -7 -4 -4 -5 -6 -6 -7 -7 -7 -7 -7 -7 -7 -7 -7 -8 -8 -8 -8 -8 -8 -8 -9 -8 -8 -9 -9 -9 -9 -9 -10 -10
-6 -7 -7 -7 -7 -8 -7 -8 -8 -8 -8 -8 -6 -7 -2 -4 -5 -6 -7 -7 -7 -7 -7 -7 -7 -7 -8 -8 -8 -8 -8 -8 -9 -9 -9 -9 -9 -9 -9 -9 -10 -10 -10 -10
-7 -7 -7 -7 -8 -8 -8 -8 -8 -8 -8 -8 -6 -9 -3 -5 -5 -6 -7 -7 -7 -7 -7 -7 -8 -8 -8 -9 -9 -9 -9 -9 -9 -9 -9 -9 -9 -9 -10 -10 -10 -10 -10 -10
-8 -7 -7 -8 -8 -9 -9 -10 -9 -9 -9 -7 -8 -9 -5 -5 -6 -7 -7 -8 -9 -8 -8 -8 -8 -9 -9 -10 -10 -10 -9 -9 -9 -9 -9 -9 -9 -10 -10 -10 -10 -10 -10 -10
-6 -6 -8 -8 -9 -9 -9 -10 -10 -11 -10 -9 -10 -8 -5 -6 -7 -7 -8 -9 -9 -9 -9 -9 -9 -9 -10 -10 -11 -10 -10 -10 -10 -10 -10 -9 -10 -10 -10 -10 -10 -11 -11 -11
-7 -6 -7 -7 -8 -10 -9 -10 -11 -12 -10 -12 -9 -7 -7 -7 -7 -8 -8 -9 -10 -10 -10 -10 -10 -10 -10 -11 -11 -11 -10 -10 -10 -10 -10 -10 -10 -10 -11 -11 -11 -11 -11 -11
-8 -8 -7 -7 -8 -9 -11 -11 -12 -13 -13 -12 -10 -10 -8 -8 -8 -9 -9 -9 -10 -11 -11 -11 -11 -11 -12 -11 -11 -10 -11 -11 -10 -10 -10 -11 -11 -11 -11 -11 -11 -11 -11 -11
-9 -9 -7 -8 -9 -9 -11 -13 -14 -16 -16 -15 -13 -10 -9 -9 -10 -10 -11 -11 -11 -11 -12 -12 -12 -12 -12 -11 -11 -11 -11 -11 -11 -11 -11 -11 -11 -11 -11 -11 -11 -11 -11 -11
-11 -11 -10 -10 -10 -10 -12 -15 -16 -17 -16 -16 -16 -12 -11 -12 -12 -12 -12 -12 -11 -12 -12 -12 -12 -12 -12 -12 -12 -11 -12 -11 -11 -11 -11 -11 -11 -11 -11 -11 -12 -12 -12 -11
-11 -12 -13 -11 -12 -12 -13 -15 -17 -18 -19 -17 -17 -15 -14 -13 -12 -12 -11 -12 -13 -13 -13 -14 -13 -14 -14 -14 -13 -12 -12 -12 -12 -11 -11 -11 -12 -12 -12 -12 -12 -12 -12 -12
-14 -14 -16 -16 -15 -16 -15 -18 -18 -17 -17 -18 -16 -15 -15 -15 -14 -13 -12 -12 -12 -12 -14 -13 -13 -14 -14 -15 -14 -13 -13 -13 -13 -12 -12 -12 -12 -12 -12 -12 -12 -12 -12 -12
-16 -17 -20 -19 -19 -20 -20 -19 -20 -19 -17 -17 -17 -17 -16 -15 -15 -14 -14 -14 -13 -13 -13 -14 -14 -13 -14 -14 -14 -14 -13 -13 -13 -12 -12 -12 -12 -12 -12 -12 -12 -12 -12 -12
-21 -22 -22 -21 -21 -23 -24 -23 -21 -20 -19 -19 -18 -16 -17 -17 -15 -15 -14 -14 -14 -14 -14 -14 -13 -14 -14 -14 -14 -14 -14 -14 -13 -12 -12 -12 -13 -13 -13 -13 -12 -12 -12 -12
-24 -24 -26 -25 -25 -25 -24 -23 -23 -23 -23 -22 -21 -21 -18 -16 -16 -16 -16 -16 -15 -14 -14 -14 -14 -13 -14 -15 -15 -14 -14 -14 -13 -13 -13 -13 -13 -13 -13 -13 -13 -13 -12 -13
-26 -26 -26 -26 -25 -25 -24 -24 -24 -24 -24 -24 -22 -22 -21 -19 -16 -16 -17 -16 -16 -14 -14 -15 -14 -14 -14 -13 -15 -14 -14 -13 -13 -13 -13 -13 -13 -13 -13 -13 -13 -13 -13 -13
-26 -26 -26 -26 -26 -25 -24 -25 -25 -25 -24 -24 -23 -22 -22 -22 -19 -17 -17 -17 -16 -15 -14 -15 -15 -15 -15 -13 -13 -14 -14 -13 -13 -14 -14 -14 -13 -13 -14 -14 -13 -13 -13 -13
-26 -27 -27 -27 -27 -26 -25 -25 -25 -24 -24 -24 -24 -22 -22 -22 -20 -18 -18 -16 -17 -15 -14 -14 -15 -16 -15 -14 -14 -13 -14 -14 -13 -14 -14 -13 -13 -14 -14 -14 -13 -13 -13 -13
-26 -27 -26 -26 -27 -26 -25 -26 -25 -25 -25 -24 -24 -24 -23 -23 -22 -20 -19 -18 -16 -15 -14 -14 -15 -15 -15 -15 -15 -14 -14 -14 -14 -14 -13 -13 -14 -14 -14 -14 -14 -14 -13 -13
-27 -27 -27 -27 -27 -26 -26 -26 -26 -26 -25 -25 -25 -24 -23 -23 -22 -22 -19 -17 -16 -15 -15 -14 -14 -14 -15 -16 -15 -15 -14 -14 -14 -13 -13 -14 -14 -14 -14 -14 -14 -14 -14 -14
-26 -27 -27 -27 -27 -27 -26 -27 -26 -26 -25 -25 -24 -24 -24 -23 -22 -22 -21 -18 -17 -15 -15 -15 -15 -15 -16 -15 -15 -15 -15 -15 -14 -14 -14 -14 -14 -14 -14 -14 -14 -14 -14 -14
-26 -27 -27 -27 -26 -27 -26 -26 -26 -26 -26 -26 -25 -25 -25 -24 -23 -22 -21 -19 -18 -16 -15 -15 -15 -15 -15 -15 -15 -15 -15 -15 -15 -15 -15 -15 -15 -15 -15 -14 -14 -14 -14 -14
-26 -27 -27 -27 -27 -26 -26 -27 -26 -26 -26 -26 -26 -25 -25 -24 -23 -22 -22 -21 -18 -18 -16 -15 -16 -16 -15 -15 -15 -15 -15 -15 -15 -15 -15 -15 -15 -15 -14 -14 -14 -14 -14 -14
-27 -27 -27 -26 -27 -27 -26 -26 -26 -26 -26 -26 -26 -26 -26 -24 -23 -22 -22 -22 -18 -18 -17 -15 -16 -16 -15 -15 -15 -15 -15 -15 -15 -15 -15 -15 -15 -15 -14 -14 -14 -14 -14 -14

GFSCGP_500_temp_015.txt.gz
Temp
-8 -8 -8 -7 -7 -7 -7 -7 -7 -7 -8 -6 -6 -5 -5 -6 -5 -5 -6 -6 -6 -7 -7 -7 -7 -7 -7 -7 -7 -7 -7 -7 -7 -7 -8 -8 -9 -8 -8 -9 -9 -9 -9 -9
-7 -7 -8 -7 -7 -7 -7 -7 -7 -7 -7 -7 -6 -5 -5 -6 -6 -6 -6 -7 -7 -7 -7 -8 -8 -7 -7 -7 -7 -7 -7 -7 -7 -7 -8 -8 -8 -8 -8 -8 -9 -9 -9 -9
-7 -8 -7 -7 -7 -8 -7 -7 -7 -7 -7 -7 -7 -5 -5 -6 -6 -7 -7 -7 -7 -8 -8 -8 -8 -8 -8 -7 -7 -7 -7 -7 -7 -8 -8 -8 -8 -8 -8 -9 -9 -9 -9 -9
-7 -8 -8 -8 -8 -8 -7 -8 -8 -8 -8 -7 -7 -5 -5 -6 -6 -6 -7 -7 -8 -8 -8 -8 -8 -8 -8 -8 -8 -8 -8 -7 -7 -8 -8 -7 -8 -8 -9 -9 -9 -9 -9 -9
-7 -7 -7 -8 -8 -8 -7 -8 -8 -8 -8 -7 -7 -7 -5 -6 -6 -6 -7 -7 -7 -8 -9 -9 -9 -9 -8 -8 -8 -8 -8 -8 -8 -8 -8 -8 -8 -8 -9 -9 -9 -9 -10 -10
-8 -8 -8 -8 -8 -8 -9 -8 -8 -9 -9 -8 -8 -9 -5 -6 -6 -7 -7 -8 -8 -9 -9 -9 -9 -9 -8 -8 -8 -8 -8 -8 -8 -9 -9 -9 -9 -10 -10 -10 -10 -10 -10 -10
-8 -8 -8 -8 -9 -8 -9 -9 -9 -9 -9 -8 -9 -9 -6 -7 -8 -8 -8 -8 -8 -9 -9 -9 -9 -9 -9 -9 -9 -8 -8 -8 -9 -9 -9 -9 -10 -10 -10 -10 -10 -10 -10 -10
-7 -7 -8 -8 -8 -8 -9 -9 -10 -10 -9 -9 -10 -9 -7 -8 -8 -8 -8 -8 -9 -9 -9 -9 -10 -10 -10 -9 -9 -9 -9 -9 -9 -10 -10 -10 -10 -10 -10 -10 -11 -11 -10 -10
-8 -8 -8 -8 -9 -9 -9 -9 -11 -11 -10 -11 -9 -9 -8 -9 -10 -10 -9 -9 -10 -10 -10 -10 -12 -11 -10 -10 -10 -10 -9 -9 -10 -10 -10 -10 -11 -11 -11 -11 -11 -11 -11 -11
-8 -8 -8 -9 -9 -10 -10 -11 -11 -12 -13 -12 -11 -11 -10 -10 -11 -11 -11 -11 -10 -11 -13 -13 -13 -13 -12 -11 -11 -12 -10 -10 -10 -11 -11 -11 -11 -11 -11 -11 -11 -11 -11 -11
-9 -9 -9 -9 -9 -10 -10 -10 -11 -13 -15 -18 -15 -12 -12 -12 -13 -14 -13 -13 -12 -12 -12 -14 -14 -14 -13 -13 -12 -12 -12 -11 -10 -11 -12 -12 -12 -12 -12 -12 -12 -11 -11 -12
-10 -9 -9 -9 -10 -10 -10 -11 -12 -16 -15 -17 -22 -20 -15 -18 -18 -18 -17 -17 -15 -16 -16 -16 -15 -14 -14 -14 -13 -13 -13 -12 -11 -12 -12 -13 -13 -12 -12 -12 -12 -12 -12 -12
-10 -9 -9 -9 -9 -10 -11 -11 -12 -15 -20 -20 -24 -23 -21 -20 -21 -21 -20 -19 -19 -19 -19 -17 -16 -16 -15 -14 -14 -14 -14 -13 -13 -12 -13 -13 -13 -13 -13 -13 -12 -12 -12 -12
-10 -10 -11 -11 -11 -11 -11 -12 -13 -18 -22 -25 -25 -26 -25 -25 -23 -21 -21 -21 -20 -19 -18 -18 -17 -17 -16 -15 -15 -15 -15 -14 -14 -14 -14 -13 -13 -14 -14 -13 -13 -13 -13 -13
-11 -11 -11 -11 -12 -12 -14 -15 -20 -24 -26 -27 -27 -27 -26 -25 -24 -24 -23 -23 -21 -22 -20 -19 -18 -18 -16 -16 -16 -15 -16 -15 -14 -14 -14 -14 -14 -14 -14 -14 -13 -13 -13 -13
-11 -12 -12 -12 -12 -14 -16 -21 -25 -27 -27 -27 -26 -26 -26 -25 -25 -25 -25 -25 -24 -24 -23 -20 -19 -18 -18 -16 -16 -16 -16 -15 -15 -15 -15 -15 -15 -15 -14 -14 -14 -13 -13 -13
-12 -12 -12 -12 -14 -17 -21 -24 -26 -27 -27 -27 -26 -26 -26 -25 -25 -25 -25 -25 -25 -24 -23 -23 -22 -20 -19 -18 -17 -16 -16 -15 -15 -16 -15 -15 -15 -14 -14 -14 -14 -14 -14 -14
-12 -13 -13 -14 -19 -22 -25 -26 -27 -27 -26 -27 -27 -27 -26 -26 -26 -25 -25 -25 -25 -24 -24 -23 -23 -22 -20 -18 -17 -16 -16 -16 -15 -15 -15 -15 -15 -15 -14 -14 -14 -14 -14 -14
-14 -15 -17 -21 -23 -25 -25 -27 -27 -27 -26 -27 -27 -26 -26 -27 -27 -25 -26 -26 -25 -25 -24 -24 -23 -23 -22 -21 -20 -18 -17 -16 -15 -15 -15 -15 -15 -15 -15 -14 -14 -14 -14 -14
-15 -17 -22 -25 -27 -27 -26 -27 -27 -27 -26 -26 -27 -27 -27 -27 -26 -26 -26 -25 -25 -25 -24 -23 -23 -24 -23 -22 -20 -18 -17 -17 -16 -15 -15 -15 -15 -15 -15 -15 -15 -15 -14 -14
-17 -20 -23 -26 -27 -26 -26 -27 -26 -26 -26 -27 -27 -27 -27 -27 -27 -26 -26 -25 -25 -25 -24 -24 -23 -23 -23 -22 -21 -19 -17 -16 -17 -16 -15 -15 -15 -15 -15 -15 -15 -15 -15 -14
-21 -23 -25 -26 -27 -26 -27 -27 -26 -27 -26 -27 -27 -27 -27 -27 -27 -27 -27 -26 -26 -25 -25 -24 -24 -23 -23 -22 -21 -20 -19 -16 -17 -16 -16 -16 -15 -15 -15 -15 -15 -15 -15 -14
-22 -25 -26 -27 -27 -27 -27 -27 -27 -27 -27 -27 -27 -27 -27 -27 -27 -27 -27 -26 -26 -26 -25 -24 -24 -23 -22 -22 -20 -19 -19 -17 -16 -17 -16 -15 -15 -15 -15 -15 -15 -15 -15 -15
-24 -26 -27 -27 -27 -27 -27 -27 -27 -27 -27 -27 -27 -27 -28 -27 -27 -27 -27 -26 -26 -26 -25 -24 -24 -23 -22 -21 -20 -19 -18 -18 -16 -16 -16 -16 -15 -15 -15 -15 -15 -15 -15 -15
-26 -27 -27 -27 -27 -27 -27 -27 -27 -27 -27 -27 -27 -27 -27 -28 -28 -28 -27 -27 -27 -26 -25 -24 -24 -23 -22 -21 -20 -18 -18 -18 -17 -16 -16 -16 -15 -16 -16 -16 -15 -15 -15 -15
-27 -27 -27 -27 -28 -28 -28 -28 -28 -28 -27 -27 -27 -27 -27 -28 -27 -27 -27 -27 -27 -27 -26 -25 -24 -23 -23 -22 -19 -18 -17 -17 -17 -17 -16 -16 -16 -16 -16 -16 -15 -15 -15 -15

GFSCGP_500_temp_018.txt.gz
Temp
-8 -8 -8 -8 -8 -8 -7 -7 -7 -7 -7 -6 -6 -6 -6 -7 -7 -7 -7 -7 -7 -8 -8 -8 -8 -8 -8 -8 -8 -8 -7 -8 -7 -7 -8 -8 -8 -8 -8 -8 -8 -8 -9 -9
-8 -8 -8 -8 -7 -7 -8 -7 -7 -7 -7 -7 -6 -6 -6 -7 -7 -7 -7 -7 -8 -8 -8 -9 -8 -8 -8 -8 -8 -8 -8 -8 -8 -8 -8 -7 -8 -8 -8 -8 -8 -8 -9 -9
-8 -8 -8 -8 -8 -8 -8 -8 -7 -7 -7 -8 -7 -5 -6 -6 -7 -7 -7 -7 -8 -8 -8 -8 -8 -8 -8 -8 -8 -8 -8 -8 -8 -8 -8 -8 -8 -8 -8 -8 -8 -9 -9 -9
-7 -8 -8 -8 -8 -8 -8 -8 -8 -8 -8 -8 -7 -5 -6 -6 -6 -7 -7 -7 -7 -8 -8 -8 -8 -8 -8 -8 -8 -8 -8 -8 -7 -8 -8 -8 -8 -8 -8 -8 -8 -8 -9 -9
-8 -8 -8 -8 -8 -8 -8 -8 -8 -8 -8 -8 -8 -7 -6 -7 -7 -8 -7 -8 -8 -8 -8 -8 -8 -9 -9 -9 -8 -8 -8 -8 -8 -7 -7 -8 -8 -9 -9 -9 -9 -9 -9 -9
-8 -8 -8 -8 -8 -8 -8 -8 -8 -8 -8 -7 -7 -7 -5 -7 -7 -8 -8 -9 -9 -10 -10 -10 -9 -9 -9 -9 -9 -9 -8 -8 -8 -8 -8 -8 -8 -9 -9 -9 -9 -9 -9 -10
-8 -8 -8 -8 -8 -8 -8 -8 -9 -8 -8 -8 -8 -8 -7 -9 -9 -9 -8 -8 -9 -9 -10 -10 -10 -10 -10 -10 -10 -10 -9 -9 -9 -8 -9 -9 -9 -9 -9 -9 -9 -9 -9 -10
-8 -8 -8 -8 -8 -9 -9 -9 -9 -9 -9 -9 -9 -9 -9 -10 -10 -9 -9 -9 -9 -9 -9 -10 -10 -11 -11 -10 -10 -10 -10 -10 -10 -9 -9 -10 -9 -9 -9 -9 -9 -9 -9 -10
-8 -8 -8 -8 -9 -9 -9 -9 -10 -10 -10 -10 -9 -10 -9 -10 -11 -10 -10 -9 -10 -10 -10 -11 -11 -12 -12 -12 -10 -10 -10 -10 -10 -10 -10 -10 -10 -9 -9 -10 -10 -10 -10 -10
-8 -8 -8 -9 -9 -10 -10 -10 -10 -10 -11 -11 -10 -10 -10 -10 -11 -12 -11 -12 -12 -12 -12 -14 -14 -14 -14 -15 -13 -12 -12 -12 -11 -11 -10 -10 -10 -10 -10 -10 -10 -10 -11 -11
-9 -9 -9 -9 -10 -10 -10 -10 -10 -11 -11 -12 -12 -10 -11 -13 -14 -14 -14 -14 -16 -15 -17 -17 -16 -16 -16 -15 -14 -14 -14 -13 -13 -12 -12 -11 -11 -11 -11 -10 -10 -11 -11 -11
-9 -9 -10 -10 -10 -10 -10 -10 -11 -11 -12 -12 -14 -11 -12 -13 -16 -18 -18 -19 -20 -21 -21 -20 -20 -19 -16 -17 -16 -16 -15 -13 -14 -13 -13 -13 -12 -12 -11 -11 -11 -12 -12 -12
-10 -10 -10 -10 -10 -10 -11 -11 -12 -12 -12 -12 -14 -15 -17 -18 -21 -24 -24 -24 -24 -24 -23 -22 -22 -19 -18 -18 -17 -17 -16 -15 -15 -14 -14 -14 -14 -13 -12 -12 -12 -12 -12 -12
-11 -11 -11 -11 -11 -11 -11 -12 -12 -12 -13 -14 -16 -21 -22 -24 -25 -26 -25 -26 -25 -25 -25 -24 -24 -22 -19 -17 -17 -16 -16 -16 -16 -15 -15 -15 -15 -14 -14 -13 -13 -13 -13 -13
-12 -11 -11 -11 -12 -12 -12 -12 -13 -13 -15 -17 -20 -25 -25 -26 -26 -26 -25 -25 -25 -25 -24 -24 -24 -24 -22 -21 -18 -16 -16 -16 -16 -16 -16 -15 -15 -15 -14 -14 -14 -14 -14 -14
-11 -11 -11 -11 -12 -12 -12 -13 -15 -18 -21 -23 -25 -25 -26 -26 -26 -26 -26 -26 -26 -26 -25 -25 -24 -24 -24 -22 -21 -18 -16 -16 -16 -16 -16 -16 -16 -15 -15 -14 -14 -14 -14 -14
-12 -12 -12 -12 -13 -13 -13 -16 -18 -20 -24 -25 -26 -26 -26 -26 -26 -26 -26 -26 -26 -26 -25 -25 -25 -25 -24 -23 -21 -20 -19 -18 -17 -17 -16 -16 -16 -15 -15 -15 -15 -14 -15 -15
-13 -13 -13 -13 -13 -13 -13 -20 -21 -24 -25 -26 -26 -26 -26 -27 -26 -26 -27 -27 -26 -26 -26 -26 -25 -25 -25 -24 -23 -22 -20 -20 -18 -18 -17 -17 -16 -16 -15 -15 -15 -15 -15 -15
-13 -13 -14 -14 -14 -14 -17 -22 -25 -25 -25 -26 -26 -26 -26 -26 -27 -26 -27 -27 -27 -27 -26 -26 -25 -25 -24 -24 -23 -23 -21 -20 -18 -17 -17 -16 -16 -15 -15 -15 -15 -15 -15 -15
-14 -14 -14 -16 -17 -17 -22 -25 -26 -26 -26 -26 -26 -26 -26 -27 -27 -26 -27 -27 -27 -27 -27 -26 -26 -25 -24 -24 -24 -23 -23 -22 -21 -19 -18 -16 -16 -16 -15 -16 -15 -15 -15 -15
-14 -15 -16 -16 -19 -21 -25 -26 -27 -27 -26 -26 -27 -27 -27 -27 -27 -27 -27 -27 -27 -27 -27 -26 -26 -25 -25 -24 -24 -23 -23 -23 -21 -21 -18 -16 -16 -15 -15 -15 -16 -16 -15 -15
-16 -16 -17 -17 -20 -22 -27 -27 -28 -27 -27 -27 -27 -27 -27 -27 -27 -27 -27 -27 -27 -27 -27 -27 -26 -26 -25 -24 -24 -23 -23 -22 -22 -21 -19 -17 -16 -16 -15 -15 -15 -15 -15 -15
-17 -17 -17 -21 -21 -25 -27 -27 -28 -28 -28 -27 -27 -27 -27 -27 -27 -27 -27 -27 -27 -28 -27 -27 -27 -26 -25 -24 -24 -23 -22 -22 -21 -20 -18 -17 -16 -15 -15 -15 -15 -15 -15 -15
-19 -18 -18 -19 -24 -26 -27 -28 -28 -28 -28 -28 -27 -28 -27 -28 -28 -27 -27 -27 -27 -28 -27 -27 -27 -27 -25 -24 -23 -23 -22 -22 -21 -20 -18 -16 -16 -16 -15 -15 -15 -15 -15 -15
-19 -19 -21 -23 -25 -26 -27 -28 -28 -28 -28 -28 -28 -28 -28 -28 -28 -28 -27 -27 -27 -27 -27 -27 -27 -27 -26 -24 -23 -23 -22 -21 -21 -18 -18 -17 -16 -15 -15 -16 -16 -15 -15 -16
-18 -21 -23 -24 -26 -27 -28 -28 -28 -28 -28 -28 -28 -28 -28 -28 -28 -28 -28 -28 -28 -28 -27 -27 -27 -27 -26 -25 -23 -23 -22 -21 -20 -17 -16 -16 -16 -16 -15 -15 -15 -15 -15 -16

GFSCGP_500_temp_021.txt.gz
Temp
-8 -8 -8 -8 -7 -8 -8 -7 -7 -7 -8 -7 -7 -6 -7 -7 -7 -7 -7 -7 -7 -8 -8 -8 -8 -8 -7 -7 -7 -7 -8 -7 -8 -8 -8 -8 -8 -8 -8 -8 -8 -8 -8 -8
-8 -8 -8 -8 -8 -7 -7 -7 -7 -7 -7 -7 -7 -6 -7 -7 -8 -8 -8 -8 -8 -8 -8 -8 -8 -8 -8 -8 -8 -8 -8 -8 -8 -8 -8 -8 -8 -8 -8 -8 -8 -8 -8 -8
-8 -7 -7 -7 -7 -7 -7 -7 -7 -7 -7 -7 -7 -6 -7 -7 -7 -7 -7 -7 -7 -8 -8 -8 -8 -8 -9 -8 -9 -8 -8 -8 -8 -8 -8 -8 -8 -8 -8 -8 -8 -9 -8 -8
-7 -7 -7 -7 -7 -7 -7 -7 -8 -8 -7 -7 -8 -7 -7 -8 -8 -7 -7 -7 -8 -8 -8 -8 -8 -8 -8 -8 -9 -9 -9 -9 -9 -8 -8 -8 -8 -8 -8 -8 -9 -9 -8 -8
-8 -7 -8 -8 -8 -8 -8 -8 -8 -8 -8 -8 -8 -8 -8 -9 -8 -8 -8 -8 -8 -8 -8 -9 -9 -9 -9 -10 -10 -9 -10 -10 -9 -9 -9 -8 -9 -8 -9 -9 -9 -8 -8 -8
-8 -7 -8 -8 -8 -8 -8 -8 -8 -8 -8 -8 -8 -8 -8 -11 -10 -9 -9 -9 -9 -9 -10 -10 -10 -10 -11 -11 -10 -10 -10 -10 -10 -10 -9 -9 -9 -9 -9 -9 -9 -9 -9 -8
-8 -7 -8 -8 -8 -8 -8 -8 -8 -8 -9 -9 -9 -8 -9 -13 -10 -10 -9 -9 -9 -9 -9 -9 -10 -12 -12 -12 -12 -12 -11 -11 -11 -10 -10 -9 -9 -10 -9 -9 -9 -9 -9 -9
-8 -8 -8 -8 -9 -9 -9 -9 -9 -9 -10 -9 -10 -10 -10 -13 -11 -10 -10 -10 -9 -9 -9 -10 -10 -11 -13 -13 -14 -14 -13 -12 -12 -11 -11 -10 -9 -10 -10 -10 -9 -9 -9 -9
-8 -8 -8 -8 -9 -9 -9 -9 -10 -10 -10 -10 -9 -10 -10 -12 -11 -12 -12 -12 -12 -12 -10 -11 -11 -12 -12 -12 -12 -14 -14 -14 -13 -12 -11 -10 -10 -10 -10 -10 -10 -10 -10 -9
-8 -8 -9 -9 -9 -10 -10 -10 -10 -11 -11 -11 -10 -11 -11 -11 -12 -12 -12 -15 -15 -14 -12 -14 -13 -13 -13 -14 -14 -15 -16 -16 -15 -13 -12 -11 -11 -10 -11 -11 -11 -10 -10 -10
-9 -9 -10 -9 -10 -10 -10 -11 -11 -10 -11 -12 -11 -9 -12 -13 -13 -13 -13 -12 -14 -14 -15 -15 -16 -17 -17 -16 -16 -18 -19 -17 -16 -15 -14 -13 -11 -11 -12 -12 -11 -11 -11 -10
-9 -10 -10 -10 -10 -10 -10 -10 -11 -11 -11 -11 -13 -11 -11 -12 -12 -13 -14 -16 -18 -20 -23 -22 -23 -23 -22 -22 -20 -20 -20 -18 -17 -17 -17 -17 -15 -14 -13 -13 -12 -11 -11 -11
-10 -10 -10 -10 -10 -10 -11 -11 -11 -12 -12 -12 -13 -12 -13 -12 -13 -14 -16 -23 -25 -25 -25 -25 -25 -25 -25 -24 -24 -23 -21 -20 -17 -17 -18 -17 -16 -15 -15 -14 -13 -12 -12 -12
-10 -11 -11 -11 -11 -11 -11 -12 -12 -13 -13 -13 -13 -14 -14 -17 -19 -19 -23 -25 -25 -25 -25 -26 -26 -25 -25 -24 -24 -24 -24 -22 -21 -19 -18 -17 -17 -16 -15 -15 -14 -14 -13 -13
-12 -12 -12 -12 -12 -12 -12 -12 -13 -13 -13 -13 -13 -15 -17 -21 -25 -25 -25 -25 -26 -26 -26 -26 -26 -26 -25 -25 -25 -24 -24 -24 -22 -21 -19 -17 -17 -16 -15 -15 -14 -14 -14 -13
-12 -12 -12 -12 -13 -13 -12 -13 -13 -13 -13 -14 -17 -17 -23 -23 -25 -25 -26 -26 -26 -26 -26 -26 -26 -26 -25 -25 -25 -25 -25 -24 -24 -23 -19 -18 -16 -16 -16 -15 -15 -14 -14 -14
-13 -13 -13 -13 -13 -13 -13 -13 -14 -15 -15 -16 -20 -21 -24 -25 -25 -26 -26 -26 -26 -26 -26 -26 -26 -27 -26 -25 -25 -25 -25 -24 -24 -24 -22 -18 -16 -16 -16 -15 -15 -15 -14 -14
-14 -14 -14 -13 -14 -14 -14 -15 -16 -16 -16 -21 -23 -24 -26 -26 -26 -26 -26 -26 -27 -27 -27 -27 -27 -27 -27 -26 -26 -25 -25 -25 -24 -24 -23 -21 -17 -16 -16 -15 -15 -15 -15 -15
-14 -14 -14 -15 -14 -14 -15 -17 -17 -18 -16 -23 -25 -26 -26 -26 -27 -26 -27 -27 -27 -27 -27 -27 -27 -27 -27 -26 -26 -26 -25 -25 -24 -24 -24 -23 -19 -18 -17 -16 -15 -15 -15 -15
-15 -15 -15 -15 -15 -15 -16 -16 -17 -18 -20 -25 -27 -27 -27 -27 -27 -26 -27 -27 -27 -27 -27 -27 -27 -27 -27 -26 -26 -26 -25 -24 -24 -24 -24 -24 -21 -19 -17 -17 -16 -15 -15 -16
-16 -16 -16 -16 -17 -17 -19 -18 -20 -22 -24 -27 -27 -28 -28 -28 -27 -27 -27 -27 -27 -27 -27 -27 -27 -28 -27 -27 -26 -26 -25 -24 -24 -24 -24 -23 -23 -20 -18 -16 -16 -15 -15 -16
-16 -16 -16 -17 -18 -20 -21 -22 -25 -25 -26 -27 -28 -28 -27 -28 -28 -28 -28 -28 -28 -27 -27 -27 -27 -27 -27 -27 -27 -26 -25 -24 -24 -23 -23 -23 -23 -20 -18 -17 -16 -16 -15 -16
-16 -16 -17 -18 -19 -19 -21 -23 -24 -25 -27 -27 -27 -28 -28 -28 -28 -28 -28 -28 -28 -28 -28 -27 -27 -27 -27 -27 -27 -27 -25 -24 -24 -23 -23 -22 -22 -20 -18 -17 -16 -16 -16 -16
-17 -17 -17 -17 -19 -20 -23 -24 -25 -25 -26 -26 -27 -28 -28 -28 -29 -28 -28 -28 -28 -28 -28 -28 -28 -27 -27 -27 -27 -27 -26 -24 -23 -23 -22 -22 -22 -20 -18 -17 -16 -16 -16 -16
-17 -17 -17 -18 -19 -18 -23 -25 -25 -25 -26 -26 -27 -28 -29 -29 -29 -29 -29 -28 -28 -28 -28 -28 -28 -27 -27 -27 -27 -27 -25 -24 -23 -23 -22 -21 -21 -19 -17 -17 -17 -16 -16 -16
-17 -17 -18 -18 -20 -21 -23 -25 -25 -25 -25 -26 -27 -27 -28 -28 -29 -29 -29 -28 -29 -28 -28 -28 -28 -28 -27 -27 -27 -26 -25 -24 -23 -23 -21 -21 -21 -19 -17 -17 -16 -16 -16 -17

GFSCGP_500_temp_024.txt.gz
Temp
-8 -7 -7 -8 -7 -7 -7 -7 -7 -7 -7 -7 -7 -7 -8 -8 -8 -8 -7 -7 -8 -8 -8 -8 -8 -8 -9 -8 -8 -8 -8 -9 -8 -8 -8 -8 -8 -8 -8 -8 -8 -8 -8 -8
-7 -7 -8 -7 -7 -7 -7 -7 -7 -7 -7 -7 -7 -7 -8 -8 -8 -7 -8 -8 -7 -7 -7 -8 -8 -9 -9 -9 -9 -9 -9 -9 -9 -9 -8 -9 -9 -8 -8 -8 -8 -8 -8 -9
-7 -7 -7 -7 -7 -7 -7 -7 -7 -7 -8 -8 -7 -8 -8 -8 -7 -7 -7 -7 -8 -8 -8 -8 -9 -9 -9 -9 -9 -9 -10 -10 -10 -10 -9 -9 -9 -9 -9 -9 -9 -9 -8 -9
-7 -7 -7 -7 -7 -7 -7 -8 -8 -8 -8 -8 -8 -8 -9 -8 -8 -7 -7 -8 -8 -8 -8 -9 -9 -9 -9 -9 -10 -10 -10 -10 -10 -10 -10 -9 -9 -9 -9 -9 -9 -9 -9 -9
-7 -7 -7 -8 -8 -8 -8 -8 -8 -8 -8 -8 -9 -9 -10 -9 -8 -9 -9 -8 -8 -8 -9 -9 -9 -10 -10 -10 -10 -10 -11 -11 -11 -11 -11 -10 -9 -9 -9 -9 -9 -9 -9 -9
-7 -7 -7 -8 -8 -8 -8 -8 -9 -9 -9 -9 -9 -9 -11 -11 -10 -9 -9 -9 -9 -9 -9 -10 -10 -11 -11 -11 -11 -11 -11 -11 -13 -13 -13 -12 -11 -10 -9 -10 -9 -9 -9 -9
-6 -6 -6 -7 -8 -8 -8 -8 -8 -9 -9 -9 -10 -11 -12 -12 -11 -10 -10 -10 -10 -10 -10 -10 -11 -11 -11 -12 -12 -12 -13 -13 -13 -13 -13 -14 -13 -12 -10 -11 -10 -9 -9 -9
-7 -7 -7 -7 -8 -9 -9 -9 -9 -9 -10 -10 -11 -11 -13 -12 -11 -11 -11 -12 -12 -12 -12 -11 -11 -11 -11 -12 -13 -14 -14 -14 -15 -15 -14 -14 -14 -14 -13 -11 -11 -10 -9 -9
-7 -8 -8 -8 -9 -9 -9 -9 -10 -10 -10 -10 -10 -11 -13 -11 -12 -12 -13 -14 -15 -15 -14 -13 -13 -13 -13 -12 -12 -13 -14 -14 -15 -16 -15 -15 -14 -14 -14 -13 -12 -11 -10 -9
-7 -7 -9 -9 -9 -10 -10 -10 -11 -11 -11 -11 -10 -11 -12 -13 -14 -15 -16 -17 -16 -16 -16 -15 -15 -14 -14 -13 -14 -14 -14 -14 -16 -16 -17 -16 -16 -15 -14 -14 -13 -12 -11 -10
-8 -8 -9 -9 -9 -9 -10 -11 -11 -11 -11 -12 -12 -9 -11 -13 -13 -13 -13 -14 -14 -13 -13 -13 -13 -14 -15 -16 -17 -18 -20 -20 -21 -20 -19 -19 -18 -16 -15 -15 -14 -13 -12 -11
-9 -9 -9 -10 -10 -10 -11 -11 -11 -12 -12 -13 -13 -10 -12 -13 -13 -13 -14 -14 -13 -14 -14 -17 -20 -21 -23 -23 -23 -24 -25 -25 -24 -24 -24 -22 -20 -19 -17 -16 -15 -13 -12 -11
-9 -9 -9 -10 -10 -10 -9 -10 -12 -13 -13 -12 -14 -12 -13 -13 -14 -14 -14 -14 -15 -16 -18 -21 -24 -25 -25 -25 -25 -25 -25 -25 -25 -24 -24 -24 -22 -19 -19 -18 -17 -16 -15 -15
-9 -10 -10 -11 -12 -12 -12 -13 -14 -14 -14 -14 -13 -14 -14 -14 -14 -14 -15 -17 -18 -20 -24 -25 -25 -26 -26 -26 -26 -26 -26 -26 -25 -25 -25 -24 -24 -21 -18 -18 -17 -17 -17 -17
-11 -11 -11 -11 -12 -12 -12 -13 -14 -14 -14 -14 -14 -14 -15 -15 -16 -17 -19 -22 -24 -25 -26 -26 -26 -26 -26 -26 -26 -26 -26 -26 -25 -25 -25 -25 -24 -23 -22 -18 -17 -17 -16 -16
-11 -11 -11 -11 -12 -12 -12 -13 -14 -14 -14 -14 -15 -16 -18 -17 -17 -19 -23 -25 -26 -26 -26 -26 -26 -26 -26 -27 -27 -27 -27 -26 -26 -25 -25 -25 -24 -24 -23 -19 -18 -17 -17 -16
-12 -12 -12 -12 -12 -13 -14 -14 -14 -14 -15 -16 -17 -17 -18 -18 -20 -21 -26 -27 -27 -27 -27 -27 -27 -27 -27 -27 -27 -27 -27 -27 -27 -26 -25 -25 -24 -24 -23 -20 -19 -18 -17 -16
-14 -13 -13 -13 -14 -14 -15 -15 -15 -15 -16 -18 -18 -19 -19 -21 -22 -24 -27 -27 -27 -27 -27 -27 -27 -27 -27 -27 -27 -27 -27 -27 -27 -26 -25 -25 -25 -24 -23 -21 -19 -19 -17 -16
-14 -14 -15 -15 -15 -15 -15 -15 -16 -16 -15 -18 -18 -19 -21 -23 -24 -24 -27 -28 -28 -28 -27 -27 -28 -27 -27 -27 -27 -27 -28 -27 -27 -26 -26 -25 -26 -24 -24 -21 -20 -19 -17 -16
-15 -15 -16 -16 -16 -16 -16 -16 -16 -16 -16 -18 -20 -22 -24 -25 -26 -26 -26 -27 -27 -28 -28 -28 -28 -28 -28 -28 -28 -28 -28 -27 -27 -26 -26 -25 -26 -24 -24 -22 -20 -19 -17 -16
-16 -16 -16 -16 -17 -17 -16 -17 -17 -18 -19 -19 -22 -24 -25 -26 -26 -27 -27 -27 -28 -28 -28 -28 -28 -28 -28 -28 -27 -28 -28 -27 -27 -27 -26 -25 -25 -25 -24 -22 -20 -18 -17 -17
-17 -17 -17 -17 -17 -18 -18 -18 -21 -21 -19 -23 -24 -25 -25 -25 -26 -26 -27 -27 -27 -28 -28 -28 -28 -28 -28 -28 -28 -28 -27 -27 -27 -27 -26 -25 -24 -24 -24 -23 -19 -17 -18 -17
-17 -17 -17 -17 -18 -17 -18 -19 -20 -21 -21 -22 -24 -25 -25 -25 -25 -26 -26 -27 -27 -28 -28 -28 -28 -28 -28 -28 -28 -28 -28 -27 -27 -27 -26 -25 -24 -23 -23 -22 -19 -18 -18 -17
-18 -17 -18 -18 -18 -18 -19 -19 -19 -22 -23 -24 -25 -25 -25 -25 -25 -25 -26 -26 -26 -27 -28 -28 -28 -28 -28 -28 -28 -28 -28 -27 -27 -27 -26 -25 -24 -23 -23 -23 -20 -18 -18 -17
-18 -18 -18 -18 -18 -17 -19 -20 -20 -20 -22 -24 -24 -24 -25 -25 -25 -25 -25 -25 -26 -26 -27 -27 -28 -28 -28 -28 -28 -28 -28 -28 -27 -27 -26 -24 -23 -23 -22 -22 -20 -18 -17 -17
-18 -18 -18 -18 -18 -19 -20 -20 -22 -22 -24 -24 -24 -23 -24 -25 -24 -25 -25 -25 -26 -26 -26 -27 -27 -28 -28 -28 -28 -28 -27 -27 -27 -26 -25 -24 -23 -22 -22 -22 -20 -18 -17 -17

GFSCGP_500_temp_027.txt.gz
Temp
-8 -7 -7 -7 -7 -7 -7 -7 -7 -7 -7 -7 -7 -8 -7 -8 -8 -8 -8 -8 -8 -8 -8 -8 -8 -9 -9 -9 -9 -9 -10 -10 -10 -9 -9 -9 -9 -8 -9 -9 -9 -9 -9 -9
-7 -7 -7 -7 -7 -7 -7 -7 -7 -8 -8 -8 -8 -8 -8 -8 -8 -8 -8 -8 -8 -8 -8 -8 -9 -9 -9 -10 -10 -10 -10 -10 -9 -9 -9 -9 -9 -9 -9 -9 -9 -10 -10 -10
-7 -7 -7 -7 -7 -7 -7 -7 -7 -8 -8 -8 -8 -8 -8 -8 -8 -8 -8 -8 -8 -8 -8 -8 -9 -9 -10 -10 -11 -10 -10 -10 -10 -10 -10 -9 -9 -9 -9 -9 -10 -10 -10 -10
-7 -7 -7 -7 -7 -7 -8 -7 -8 -8 -8 -8 -9 -8 -9 -8 -8 -8 -8 -8 -8 -8 -8 -9 -9 -10 -11 -11 -11 -11 -11 -11 -11 -11 -11 -11 -10 -9 -9 -10 -9 -9 -10 -10
-7 -7 -7 -7 -8 -7 -7 -7 -8 -8 -9 -9 -9 -9 -9 -8 -8 -8 -8 -8 -9 -9 -9 -10 -10 -11 -12 -12 -12 -13 -13 -13 -13 -13 -13 -12 -12 -11 -10 -10 -10 -9 -10 -10
-7 -7 -7 -7 -8 -7 -7 -7 -8 -9 -9 -9 -9 -9 -9 -9 -9 -9 -9 -10 -10 -10 -11 -11 -11 -12 -12 -13 -13 -14 -14 -14 -15 -15 -15 -15 -13 -13 -12 -11 -10 -11 -10 -10
-7 -7 -7 -7 -8 -7 -7 -8 -8 -8 -9 -9 -10 -10 -10 -10 -10 -10 -11 -11 -11 -12 -11 -12 -12 -13 -14 -14 -15 -15 -15 -15 -15 -15 -14 -15 -14 -14 -13 -13 -12 -11 -11 -11
-7 -7 -7 -7 -8 -8 -8 -9 -9 -9 -9 -10 -11 -11 -11 -11 -12 -12 -13 -13 -14 -13 -14 -13 -13 -14 -14 -14 -15 -15 -16 -15 -15 -15 -15 -15 -14 -14 -14 -14 -14 -12 -12 -12
-7 -7 -7 -8 -8 -8 -9 -9 -10 -10 -10 -9 -10 -10 -10 -11 -12 -13 -13 -15 -15 -16 -15 -14 -15 -15 -16 -16 -15 -15 -15 -15 -14 -14 -14 -14 -14 -14 -15 -16 -15 -14 -13 -12
-7 -8 -8 -8 -9 -9 -9 -10 -11 -11 -11 -10 -10 -10 -11 -11 -13 -14 -16 -17 -17 -16 -16 -16 -16 -17 -17 -17 -16 -15 -15 -15 -15 -16 -18 -17 -17 -17 -17 -17 -17 -16 -14 -13
-7 -8 -8 -8 -8 -9 -10 -10 -10 -10 -11 -11 -10 -10 -11 -12 -14 -14 -15 -15 -15 -15 -16 -16 -15 -15 -15 -15 -16 -17 -19 -20 -20 -21 -22 -22 -22 -22 -21 -19 -19 -17 -17 -15
-8 -8 -9 -9 -10 -10 -10 -11 -11 -11 -11 -11 -12 -10 -12 -13 -14 -14 -14 -14 -14 -15 -15 -15 -15 -16 -17 -19 -21 -23 -24 -24 -25 -25 -25 -25 -25 -25 -25 -24 -22 -21 -19 -17
-8 -8 -8 -9 -9 -9 -10 -11 -11 -12 -12 -12 -14 -13 -14 -14 -14 -14 -15 -15 -15 -15 -16 -17 -18 -19 -21 -23 -25 -26 -26 -26 -26 -26 -26 -26 -26 -26 -25 -25 -24 -24 -23 -21
-9 -10 -9 -10 -11 -11 -11 -12 -12 -14 -13 -13 -14 -14 -15 -15 -14 -14 -14 -16 -17 -17 -18 -19 -21 -23 -24 -26 -26 -26 -26 -26 -26 -26 -26 -26 -26 -26 -25 -25 -24 -24 -25 -23
-10 -10 -10 -11 -11 -11 -12 -12 -13 -14 -14 -15 -14 -15 -15 -15 -15 -16 -17 -18 -19 -19 -20 -23 -25 -26 -26 -26 -27 -27 -27 -27 -27 -27 -27 -27 -27 -26 -25 -25 -25 -24 -25 -24
-10 -11 -10 -11 -12 -12 -13 -13 -13 -14 -15 -15 -15 -15 -16 -16 -17 -17 -18 -21 -22 -23 -24 -25 -25 -26 -27 -27 -27 -27 -27 -27 -27 -27 -27 -27 -27 -27 -26 -25 -25 -25 -24 -23
-12 -11 -11 -12 -12 -13 -14 -14 -14 -15 -15 -16 -16 -16 -16 -17 -17 -18 -20 -22 -23 -24 -25 -26 -26 -27 -27 -27 -27 -28 -27 -27 -27 -27 -28 -27 -27 -27 -26 -25 -25 -24 -24 -23
-13 -13 -13 -13 -13 -14 -15 -16 -15 -16 -16 -17 -17 -17 -17 -18 -17 -18 -22 -23 -24 -25 -26 -27 -27 -27 -27 -28 -28 -28 -27 -28 -27 -27 -28 -28 -27 -27 -26 -25 -25 -24 -24 -23
-14 -15 -15 -15 -14 -15 -16 -16 -16 -16 -16 -17 -17 -17 -18 -18 -18 -19 -24 -24 -25 -25 -26 -26 -27 -27 -27 -28 -28 -28 -28 -28 -28 -28 -28 -28 -27 -27 -26 -26 -25 -25 -23 -22
-15 -15 -15 -16 -16 -16 -17 -17 -17 -16 -16 -17 -18 -19 -19 -19 -20 -20 -23 -24 -24 -25 -26 -26 -26 -27 -27 -28 -29 -28 -28 -28 -28 -28 -28 -27 -27 -27 -26 -25 -25 -25 -23 -22
-16 -15 -16 -16 -17 -17 -17 -17 -17 -17 -18 -17 -19 -19 -19 -20 -22 -23 -23 -23 -23 -24 -24 -25 -26 -27 -27 -28 -29 -29 -28 -28 -28 -28 -28 -27 -27 -27 -26 -25 -25 -24 -24 -22
-17 -17 -17 -17 -18 -18 -18 -18 -18 -18 -18 -19 -20 -20 -20 -21 -23 -23 -23 -23 -23 -24 -24 -25 -26 -26 -26 -27 -28 -28 -28 -28 -28 -28 -28 -28 -27 -27 -26 -25 -25 -24 -24 -21
-17 -18 -18 -18 -18 -18 -18 -19 -18 -19 -20 -19 -20 -20 -22 -22 -23 -24 -23 -23 -24 -24 -25 -25 -26 -26 -26 -27 -27 -27 -28 -28 -28 -28 -28 -28 -27 -27 -26 -25 -25 -25 -23 -20
-18 -19 -17 -17 -18 -18 -18 -19 -19 -19 -19 -20 -20 -21 -23 -24 -24 -24 -24 -24 -24 -25 -25 -25 -26 -26 -26 -27 -27 -27 -27 -28 -28 -28 -28 -27 -27 -27 -26 -24 -25 -24 -23 -20
-19 -19 -18 -18 -19 -18 -19 -19 -18 -19 -20 -20 -21 -22 -24 -24 -24 -24 -23 -24 -25 -25 -26 -26 -26 -26 -26 -26 -26 -27 -27 -28 -28 -28 -28 -27 -27 -27 -25 -24 -24 -24 -22 -19
-19 -19 -18 -18 -19 -19 -18 -18 -19 -20 -20 -21 -21 -22 -23 -24 -24 -24 -24 -26 -26 -26 -26 -26 -26 -26 -26 -26 -26 -27 -27 -27 -28 -28 -27 -27 -27 -26 -24 -23 -23 -24 -20 -19

GFSCGP_500_temp_030.txt.gz
Temp
-8 -7 -7 -7 -7 -7 -7 -7 -7 -7 -7 -7 -7 -7 -7 -8 -8 -8 -8 -8 -8 -8 -8 -8 -8 -8 -9 -9 -9 -9 -9 -9 -9 -9 -9 -9 -10 -9 -9 -9 -10 -10 -10 -9
-7 -7 -7 -7 -7 -7 -7 -7 -7 -7 -7 -7 -7 -7 -7 -7 -8 -8 -8 -8 -8 -8 -9 -9 -9 -10 -10 -10 -10 -11 -10 -10 -10 -10 -10 -10 -9 -9 -9 -9 -9 -10 -10 -10
-7 -7 -8 -7 -7 -7 -7 -7 -7 -7 -8 -8 -8 -7 -7 -7 -8 -8 -8 -9 -9 -9 -9 -9 -10 -10 -10 -11 -11 -11 -11 -11 -11 -12 -11 -11 -10 -10 -10 -10 -10 -9 -10 -10
-7 -7 -7 -7 -7 -7 -7 -8 -8 -7 -7 -8 -8 -7 -7 -7 -7 -8 -8 -9 -9 -9 -10 -10 -10 -10 -11 -11 -12 -12 -13 -13 -13 -13 -13 -13 -12 -12 -11 -11 -11 -11 -10 -10
-7 -7 -8 -8 -7 -7 -7 -7 -7 -8 -8 -7 -8 -8 -7 -7 -8 -9 -9 -9 -10 -10 -10 -11 -11 -12 -12 -12 -13 -13 -14 -14 -14 -15 -14 -14 -14 -14 -14 -13 -12 -11 -11 -11
-7 -7 -7 -7 -7 -7 -7 -8 -8 -8 -8 -8 -8 -8 -7 -8 -9 -9 -9 -9 -10 -10 -11 -11 -12 -13 -14 -14 -14 -14 -15 -15 -15 -15 -15 -15 -15 -15 -15 -14 -13 -12 -12 -11
-7 -7 -7 -7 -7 -7 -7 -7 -8 -7 -7 -8 -8 -8 -8 -9 -9 -10 -10 -10 -10 -10 -11 -12 -13 -14 -14 -14 -15 -15 -15 -16 -16 -16 -16 -16 -16 -16 -16 -16 -15 -14 -13 -13
-7 -7 -7 -7 -7 -7 -8 -8 -8 -8 -8 -8 -10 -9 -9 -10 -11 -11 -12 -12 -11 -12 -12 -13 -13 -14 -14 -15 -16 -16 -16 -15 -15 -15 -15 -16 -16 -16 -16 -16 -16 -15 -15 -14
-7 -7 -8 -7 -8 -8 -8 -8 -8 -8 -8 -8 -9 -9 -9 -10 -11 -11 -12 -12 -12 -13 -13 -14 -14 -15 -15 -15 -15 -15 -15 -15 -15 -15 -16 -16 -16 -16 -16 -16 -16 -16 -15 -14
-8 -7 -7 -7 -8 -8 -9 -9 -9 -10 -10 -9 -9 -9 -10 -11 -11 -12 -13 -13 -14 -14 -15 -15 -16 -16 -16 -16 -17 -17 -17 -17 -16 -16 -16 -16 -16 -17 -16 -16 -16 -16 -16 -16
-8 -8 -8 -8 -8 -9 -9 -9 -9 -10 -10 -10 -10 -10 -11 -12 -13 -14 -14 -14 -15 -15 -15 -16 -16 -17 -16 -16 -16 -16 -16 -16 -17 -19 -20 -22 -23 -24 -24 -24 -22 -21 -21 -19
-8 -8 -8 -9 -9 -9 -10 -10 -10 -10 -11 -11 -12 -10 -12 -13 -13 -14 -14 -15 -15 -15 -15 -15 -15 -16 -16 -17 -17 -17 -18 -20 -21 -23 -24 -25 -26 -26 -26 -26 -26 -25 -24 -23
-9 -9 -9 -9 -9 -10 -10 -10 -11 -11 -12 -12 -13 -13 -14 -14 -15 -15 -15 -15 -15 -15 -15 -16 -17 -17 -18 -19 -21 -22 -23 -24 -25 -26 -27 -27 -27 -26 -26 -26 -26 -26 -26 -26
-9 -10 -10 -10 -10 -10 -11 -12 -12 -13 -13 -13 -14 -13 -15 -15 -15 -15 -15 -15 -16 -16 -17 -17 -17 -18 -20 -22 -24 -25 -25 -26 -26 -27 -27 -27 -27 -27 -27 -27 -27 -27 -26 -26
-10 -10 -10 -11 -11 -11 -12 -12 -13 -13 -14 -14 -14 -15 -15 -15 -16 -16 -16 -16 -17 -18 -18 -19 -20 -21 -22 -24 -24 -25 -25 -26 -27 -27 -27 -27 -27 -27 -27 -27 -27 -27 -27 -26
-11 -11 -10 -11 -12 -12 -12 -13 -13 -14 -14 -15 -15 -15 -16 -16 -16 -16 -17 -18 -18 -18 -18 -19 -21 -22 -23 -24 -24 -24 -25 -26 -27 -27 -27 -27 -27 -27 -27 -27 -27 -27 -27 -26
-11 -11 -11 -11 -12 -12 -13 -13 -14 -14 -15 -16 -16 -16 -16 -17 -17 -17 -17 -18 -19 -19 -20 -22 -23 -23 -24 -24 -24 -24 -25 -25 -26 -27 -28 -28 -27 -28 -27 -28 -28 -27 -27 -26
-12 -12 -12 -12 -13 -13 -14 -14 -15 -15 -16 -17 -17 -17 -17 -17 -17 -18 -19 -19 -20 -21 -22 -22 -23 -23 -23 -23 -24 -25 -25 -25 -26 -27 -28 -28 -28 -28 -28 -28 -28 -27 -27 -26
-13 -13 -13 -14 -13 -13 -15 -16 -16 -16 -16 -17 -17 -17 -18 -18 -18 -18 -19 -20 -21 -22 -23 -23 -23 -23 -23 -23 -24 -25 -25 -26 -26 -27 -28 -29 -28 -28 -28 -28 -28 -27 -27 -26
-14 -15 -14 -15 -15 -14 -16 -17 -16 -17 -17 -17 -18 -18 -18 -18 -18 -18 -19 -19 -21 -22 -23 -23 -23 -23 -24 -25 -26 -26 -26 -26 -26 -27 -28 -28 -29 -28 -28 -28 -28 -27 -27 -26
-15 -15 -15 -16 -16 -15 -17 -17 -17 -18 -18 -18 -18 -18 -18 -19 -19 -19 -20 -21 -22 -23 -23 -24 -24 -25 -25 -26 -26 -26 -26 -26 -27 -27 -27 -28 -28 -28 -28 -28 -27 -27 -26 -26
-16 -16 -16 -17 -16 -17 -18 -18 -18 -18 -19 -19 -19 -19 -19 -19 -19 -20 -20 -23 -24 -24 -24 -24 -25 -25 -26 -26 -27 -26 -27 -27 -27 -27 -27 -27 -28 -28 -28 -28 -27 -27 -26 -25
-17 -17 -18 -18 -17 -19 -19 -18 -19 -19 -19 -19 -19 -19 -19 -19 -20 -20 -22 -23 -23 -24 -25 -25 -26 -26 -26 -27 -27 -27 -27 -27 -27 -26 -27 -28 -28 -28 -28 -28 -27 -27 -25 -25
-18 -18 -18 -17 -18 -19 -19 -19 -19 -19 -20 -19 -19 -19 -19 -20 -20 -21 -23 -24 -24 -24 -26 -26 -26 -26 -26 -26 -26 -26 -26 -26 -26 -26 -27 -28 -28 -28 -28 -27 -27 -25 -25 -24
-18 -18 -19 -18 -19 -18 -19 -19 -19 -20 -20 -20 -20 -20 -20 -20 -21 -22 -23 -24 -24 -25 -26 -26 -27 -27 -26 -26 -26 -26 -26 -26 -27 -27 -28 -28 -27 -28 -27 -27 -26 -24 -25 -24
-19 -20 -19 -18 -19 -18 -19 -19 -20 -20 -20 -20 -20 -20 -20 -21 -22 -23 -24 -24 -25 -25 -26 -26 -26 -26 -26 -26 -26 -26 -26 -27 -27 -27 -27 -27 -27 -27 -27 -26 -25 -24 -24 -22

GFSCGP_500_temp_033.txt.gz
Temp
-8 -8 -8 -8 -7 -7 -7 -7 -7 -7 -7 -7 -7 -7 -7 -7 -8 -8 -8 -8 -8 -9 -9 -9 -9 -9 -9 -9 -9 -10 -10 -10 -10 -10 -10 -9 -10 -10 -10 -10 -10 -10 -11 -11
-8 -8 -8 -7 -7 -7 -7 -7 -7 -7 -7 -7 -7 -7 -7 -7 -8 -8 -8 -8 -9 -9 -9 -9 -9 -9 -10 -10 -10 -10 -10 -11 -11 -11 -11 -11 -11 -10 -10 -11 -11 -11 -10 -11
-8 -8 -8 -7 -7 -7 -7 -7 -7 -7 -7 -7 -7 -7 -7 -8 -8 -8 -9 -9 -9 -9 -9 -10 -10 -10 -10 -10 -10 -11 -11 -11 -11 -11 -11 -12 -12 -12 -11 -11 -12 -12 -11 -11
-8 -8 -8 -8 -7 -7 -7 -7 -7 -7 -7 -7 -7 -6 -7 -7 -8 -8 -9 -9 -9 -9 -9 -10 -10 -11 -11 -12 -12 -12 -12 -12 -12 -12 -13 -13 -13 -13 -13 -13 -12 -13 -12 -13
-8 -8 -8 -7 -7 -7 -7 -7 -7 -7 -7 -7 -8 -7 -7 -8 -7 -8 -8 -8 -8 -8 -9 -9 -10 -10 -11 -12 -13 -13 -14 -14 -14 -14 -13 -13 -14 -14 -14 -14 -14 -14 -13 -13
-8 -8 -8 -7 -7 -7 -7 -7 -7 -8 -8 -7 -7 -7 -7 -7 -7 -8 -8 -8 -8 -9 -9 -9 -10 -11 -11 -12 -13 -14 -14 -15 -15 -15 -15 -15 -15 -14 -15 -14 -14 -13 -14 -15
-8 -8 -8 -7 -7 -8 -8 -8 -7 -7 -7 -7 -7 -6 -7 -7 -8 -9 -9 -9 -9 -10 -10 -10 -11 -11 -12 -13 -14 -14 -14 -15 -15 -15 -15 -16 -16 -16 -16 -16 -16 -15 -14 -14
-8 -8 -8 -8 -8 -8 -8 -8 -8 -7 -7 -7 -8 -7 -8 -9 -9 -9 -9 -10 -10 -11 -11 -11 -12 -12 -13 -14 -14 -14 -14 -14 -15 -15 -16 -16 -16 -16 -16 -16 -16 -16 -15 -16
-8 -8 -8 -8 -9 -8 -8 -8 -8 -8 -8 -7 -7 -8 -8 -10 -10 -10 -10 -10 -11 -11 -12 -12 -13 -14 -15 -15 -15 -15 -15 -15 -15 -16 -16 -16 -17 -17 -17 -17 -17 -16 -16 -16
-8 -9 -9 -9 -8 -8 -8 -8 -8 -8 -8 -8 -8 -8 -9 -10 -10 -10 -11 -12 -12 -13 -14 -15 -15 -15 -16 -16 -16 -16 -16 -17 -17 -17 -17 -17 -17 -17 -17 -18 -18 -18 -18 -17
-9 -9 -9 -8 -9 -9 -9 -9 -9 -9 -10 -9 -9 -9 -11 -11 -11 -11 -12 -13 -14 -14 -15 -16 -16 -16 -16 -16 -16 -16 -16 -17 -18 -17 -17 -18 -18 -19 -20 -21 -22 -22 -22 -21
-9 -9 -9 -9 -9 -9 -9 -10 -10 -10 -10 -10 -11 -10 -12 -12 -12 -13 -13 -14 -15 -16 -16 -17 -17 -17 -16 -16 -17 -17 -18 -18 -18 -19 -20 -21 -21 -22 -22 -22 -23 -25 -26 -26
-9 -9 -9 -9 -9 -10 -10 -10 -10 -10 -11 -11 -11 -12 -13 -13 -13 -14 -15 -16 -16 -16 -16 -17 -17 -17 -17 -18 -18 -19 -19 -20 -21 -22 -23 -22 -22 -23 -23 -23 -25 -26 -27 -27
-10 -10 -10 -10 -10 -10 -11 -11 -11 -11 -11 -12 -12 -12 -15 -14 -15 -15 -15 -16 -16 -17 -17 -17 -17 -17 -17 -19 -19 -20 -20 -21 -22 -23 -23 -23 -23 -24 -24 -25 -26 -27 -27 -27
-10 -10 -10 -11 -11 -11 -11 -12 -12 -12 -13 -13 -13 -13 -15 -15 -15 -15 -16 -16 -17 -18 -18 -18 -18 -18 -19 -20 -20 -21 -22 -23 -23 -23 -23 -23 -24 -25 -25 -26 -27 -28 -27 -27
-11 -11 -11 -11 -12 -12 -12 -13 -13 -13 -13 -14 -14 -14 -15 -15 -16 -16 -17 -18 -18 -18 -18 -18 -18 -19 -20 -21 -22 -23 -23 -23 -23 -24 -24 -24 -24 -25 -25 -26 -27 -28 -27 -28
-11 -11 -11 -11 -12 -12 -13 -13 -13 -13 -14 -15 -15 -15 -15 -16 -16 -17 -18 -18 -18 -19 -19 -19 -19 -20 -21 -22 -23 -23 -23 -23 -24 -25 -25 -25 -26 -26 -26 -27 -27 -28 -28 -28
-12 -12 -12 -12 -13 -13 -13 -14 -14 -13 -14 -15 -15 -16 -17 -17 -17 -18 -19 -19 -19 -19 -19 -20 -20 -20 -22 -23 -23 -24 -24 -25 -25 -26 -26 -26 -27 -27 -27 -27 -28 -28 -28 -28
-13 -13 -13 -13 -14 -13 -14 -14 -14 -14 -14 -16 -16 -17 -17 -17 -17 -19 -19 -19 -19 -19 -20 -20 -21 -23 -23 -24 -25 -25 -25 -26 -26 -26 -27 -26 -26 -27 -27 -27 -28 -28 -28 -28
-14 -14 -14 -14 -15 -14 -15 -15 -15 -15 -15 -16 -16 -17 -18 -18 -18 -19 -19 -19 -19 -20 -20 -21 -22 -23 -24 -25 -26 -26 -27 -27 -27 -27 -27 -27 -27 -27 -27 -27 -28 -28 -28 -28
-15 -15 -15 -15 -16 -15 -16 -16 -16 -16 -16 -17 -17 -18 -18 -19 -20 -20 -20 -20 -20 -20 -21 -22 -23 -24 -25 -26 -26 -27 -27 -27 -26 -26 -26 -27 -27 -27 -27 -27 -28 -28 -28 -28
-16 -16 -15 -16 -16 -17 -16 -17 -17 -17 -18 -18 -18 -19 -19 -19 -20 -20 -20 -20 -20 -21 -22 -23 -23 -24 -25 -25 -26 -27 -27 -26 -26 -26 -26 -26 -27 -27 -27 -27 -28 -28 -28 -28
-16 -17 -16 -16 -16 -19 -18 -18 -18 -18 -18 -18 -19 -19 -20 -20 -20 -20 -20 -20 -20 -22 -23 -23 -24 -24 -24 -25 -25 -25 -25 -26 -26 -26 -26 -26 -26 -27 -27 -27 -28 -28 -28 -27
-17 -17 -16 -18 -17 -18 -18 -18 -18 -18 -18 -19 -19 -20 -20 -21 -21 -20 -20 -20 -21 -22 -23 -24 -24 -23 -23 -24 -24 -25 -25 -25 -26 -26 -26 -27 -27 -27 -27 -27 -28 -28 -27 -27
-17 -18 -18 -18 -18 -17 -17 -18 -19 -19 -19 -19 -20 -20 -21 -21 -20 -20 -20 -20 -21 -23 -23 -24 -24 -24 -23 -23 -24 -25 -25 -25 -26 -26 -27 -27 -28 -28 -28 -27 -28 -27 -27 -26
-19 -19 -19 -18 -17 -18 -19 -19 -19 -19 -19 -19 -20 -21 -21 -20 -20 -20 -20 -21 -22 -23 -24 -24 -24 -24 -24 -24 -24 -24 -25 -25 -25 -26 -26 -27 -27 -27 -27 -27 -27 -26 -25 -25

GFSCGP_500_temp_036.txt.gz
Temp
-9 -8 -8 -8 -8 -7 -7 -7 -7 -7 -7 -7 -7 -7 -7 -7 -7 -8 -8 -8 -8 -8 -8 -8 -8 -8 -8 -8 -9 -9 -9 -9 -9 -10 -10 -10 -10 -10 -10 -10 -11 -11 -11 -11
-8 -8 -8 -8 -8 -8 -7 -7 -7 -7 -7 -7 -7 -7 -7 -7 -7 -7 -7 -8 -8 -8 -9 -9 -9 -9 -9 -9 -10 -10 -10 -10 -10 -10 -10 -10 -11 -10 -10 -10 -10 -11 -12 -12
-8 -8 -8 -8 -8 -8 -7 -7 -7 -7 -7 -7 -7 -7 -7 -7 -8 -8 -8 -8 -9 -9 -9 -9 -9 -9 -9 -9 -10 -10 -10 -10 -11 -11 -12 -12 -11 -11 -11 -11 -11 -11 -11 -12
-8 -8 -8 -8 -7 -7 -7 -7 -7 -7 -7 -7 -7 -7 -7 -8 -9 -8 -9 -9 -8 -8 -9 -9 -9 -9 -9 -9 -10 -10 -10 -10 -11 -12 -12 -13 -13 -13 -13 -12 -13 -13 -12 -12
-9 -8 -8 -8 -8 -8 -8 -7 -7 -7 -7 -7 -7 -7 -8 -9 -9 -8 -7 -7 -7 -8 -8 -8 -9 -9 -9 -9 -10 -10 -11 -12 -12 -13 -14 -14 -14 -14 -14 -14 -14 -14 -14 -14
-8 -8 -8 -8 -8 -8 -8 -7 -7 -7 -7 -8 -8 -8 -8 -8 -8 -7 -7 -7 -8 -8 -8 -9 -9 -9 -10 -10 -10 -11 -11 -13 -14 -15 -15 -15 -15 -15 -15 -15 -15 -15 -15 -15
-8 -8 -8 -8 -8 -8 -8 -8 -8 -8 -8 -8 -8 -7 -8 -8 -8 -8 -8 -8 -9 -9 -9 -10 -10 -10 -10 -11 -11 -12 -12 -13 -14 -15 -15 -15 -15 -15 -16 -16 -16 -16 -16 -16
-9 -9 -8 -8 -8 -8 -8 -8 -9 -9 -8 -8 -8 -8 -8 -9 -8 -8 -9 -9 -10 -10 -10 -10 -11 -11 -11 -12 -12 -12 -13 -14 -15 -15 -15 -16 -16 -16 -16 -16 -16 -17 -17 -17
-9 -9 -9 -9 -9 -8 -9 -9 -9 -9 -8 -8 -8 -8 -8 -9 -9 -9 -9 -10 -10 -11 -11 -12 -12 -12 -12 -13 -14 -15 -16 -16 -17 -17 -16 -17 -17 -17 -17 -18 -18 -18 -18 -18
-9 -9 -9 -9 -9 -9 -10 -10 -9 -9 -9 -8 -8 -9 -10 -10 -10 -10 -11 -11 -11 -12 -12 -13 -13 -14 -15 -15 -16 -17 -17 -17 -17 -16 -17 -17 -17 -18 -19 -19 -19 -19 -19 -19
-9 -9 -9 -9 -9 -9 -10 -10 -9 -10 -10 -10 -10 -9 -11 -11 -11 -11 -11 -12 -12 -12 -13 -14 -14 -15 -16 -17 -17 -17 -17 -17 -17 -17 -18 -18 -19 -19 -19 -20 -20 -20 -21 -21
-9 -9 -9 -9 -10 -10 -10 -10 -10 -10 -10 -11 -11 -9 -12 -11 -11 -12 -12 -12 -13 -14 -14 -15 -16 -16 -17 -17 -18 -18 -17 -18 -18 -19 -19 -19 -19 -20 -21 -22 -22 -22 -22 -23
-10 -10 -10 -10 -10 -10 -10 -11 -11 -11 -11 -11 -11 -12 -12 -12 -12 -12 -13 -13 -14 -15 -16 -16 -16 -16 -17 -18 -18 -18 -18 -18 -19 -20 -21 -21 -22 -22 -23 -23 -23 -23 -23 -24
-10 -10 -10 -11 -10 -11 -11 -11 -12 -12 -12 -12 -12 -12 -14 -13 -13 -14 -14 -15 -16 -16 -16 -16 -17 -18 -18 -18 -18 -18 -19 -19 -20 -21 -23 -23 -23 -24 -24 -24 -24 -24 -24 -23
-11 -11 -11 -11 -11 -11 -12 -12 -12 -12 -13 -13 -13 -13 -14 -14 -14 -15 -15 -16 -16 -16 -17 -17 -18 -18 -18 -19 -19 -19 -20 -21 -22 -23 -24 -25 -26 -25 -25 -25 -25 -25 -24 -24
-11 -11 -11 -12 -12 -12 -12 -13 -13 -13 -13 -13 -14 -13 -14 -15 -15 -15 -16 -16 -16 -17 -17 -17 -18 -19 -19 -19 -19 -20 -21 -21 -23 -24 -25 -26 -27 -27 -27 -26 -26 -26 -26 -26
-12 -12 -12 -12 -13 -12 -12 -13 -14 -14 -14 -15 -14 -15 -15 -15 -15 -16 -16 -17 -17 -17 -18 -18 -18 -19 -19 -19 -20 -21 -21 -22 -22 -23 -25 -26 -26 -27 -27 -27 -27 -27 -27 -27
-12 -13 -13 -13 -13 -12 -13 -14 -14 -14 -14 -15 -15 -16 -16 -16 -15 -17 -18 -17 -18 -18 -18 -19 -19 -19 -20 -20 -21 -21 -22 -22 -23 -23 -24 -26 -26 -27 -27 -27 -27 -27 -27 -27
-14 -14 -14 -13 -13 -12 -13 -15 -14 -14 -13 -16 -16 -16 -16 -16 -16 -17 -18 -18 -18 -18 -19 -19 -20 -20 -20 -22 -22 -22 -22 -23 -23 -24 -24 -25 -26 -26 -26 -27 -27 -27 -27 -27
-14 -14 -14 -14 -14 -13 -14 -15 -15 -15 -14 -15 -16 -16 -16 -16 -16 -17 -18 -18 -18 -19 -20 -20 -20 -20 -21 -22 -23 -23 -23 -23 -24 -24 -25 -25 -25 -26 -26 -26 -27 -27 -27 -27
-15 -15 -15 -15 -15 -14 -16 -16 -16 -16 -16 -16 -16 -16 -16 -17 -18 -18 -18 -19 -19 -20 -20 -20 -20 -21 -22 -23 -23 -22 -23 -23 -24 -25 -25 -25 -26 -26 -26 -26 -26 -27 -27 -27
-16 -16 -16 -16 -16 -16 -17 -17 -17 -17 -16 -17 -17 -17 -18 -18 -18 -19 -19 -19 -20 -20 -20 -20 -20 -21 -22 -23 -23 -23 -23 -24 -24 -25 -25 -26 -26 -26 -27 -27 -26 -27 -27 -27
-16 -17 -17 -17 -16 -18 -18 -17 -17 -17 -17 -18 -18 -19 -19 -19 -19 -19 -19 -20 -20 -20 -20 -20 -21 -22 -23 -23 -23 -23 -24 -24 -24 -25 -25 -26 -26 -27 -27 -27 -27 -26 -27 -27
-16 -17 -18 -17 -16 -17 -17 -17 -18 -18 -18 -19 -19 -19 -19 -19 -20 -19 -20 -20 -20 -21 -20 -21 -22 -22 -23 -23 -23 -24 -24 -24 -25 -25 -26 -26 -27 -27 -27 -27 -27 -27 -27 -27
-18 -18 -19 -17 -17 -16 -17 -18 -19 -19 -20 -19 -20 -20 -20 -20 -20 -20 -20 -21 -21 -20 -20 -21 -22 -23 -23 -23 -23 -24 -24 -24 -25 -25 -25 -26 -27 -27 -27 -27 -27 -27 -27 -26
-20 -20 -19 -18 -19 -18 -18 -19 -19 -19 -20 -20 -20 -20 -20 -20 -20 -20 -21 -21 -21 -20 -21 -22 -23 -23 -23 -23 -23 -24 -24 -25 -25 -26 -26 -26 -27 -27 -27 -27 -27 -26 -26 -25